Home   Weather   Fairfield Plantation   Past weeks
Flag for USA

Past Weather in Fairfield Plantation, North Carolina, USA — Yesterday and Last 2 Weeks

Now
49 °F

Fog.


Feels Like: 45 °F
Forecast: 57 / 43 °F
Wind: 10 mph from West

Location: Charlotte / Douglas International Airport

Current Time: Dec 14, 2019 at 11:57:37 am

Latest Report: Dec 14, 2019 at 11:29 am


Visibility: 3 mi

Pressure: 29.58 "Hg

Humidity: 90%

Dew Point: 46 °F

Location of Fairfield PlantationLocation

Past Weather in Fairfield Plantation — Graph

°F

Fairfield Plantation Temperature Yesterday

Maximum temperature yesterday: 43 °F (at 11:52 pm)
Minimum temperature yesterday: 34 °F (at 1:20 am)
Average temperature yesterday: 37 °F

High & Low Weather Summary for the Past Weeks

 TemperatureHumidityPressure
High72 °F (Dec 10, 1:52 pm)97% (Dec 10, 6:52 am)30.66 "Hg (Dec 10, 6:52 am)
Low28 °F (Dec 12, 12:52 am)17% (Dec 5, 2:52 pm)29.46 "Hg (Dec 1, 2:52 pm)
Average47 °F65%30.05 "Hg
* Reported Nov 29 10:52 am — Dec 14 10:05 am, Fairfield Plantation. Weather by CustomWeather, © 2019

Note: Actual official high and low records may vary slightly from our data, if they occured in-between our weather recording intervals... More about our weather records

Fairfield Plantation Weather History for the Previous 24 Hours

Scroll right to see more
 ConditionsComfort  
Time TempWeatherWind HumidityBarometerVisibility
10:05 am
Sat, Dec 14
47 °FFog.9 mph93%29.58 "Hg2 mi
9:52 am47 °FFog.7 mph93%29.58 "Hg3 mi
8:52 am46 °FFog.9 mph93%29.58 "Hg3 mi
7:52 am45 °FFog.7 mph93%29.59 "Hg3 mi
6:52 am44 °FFog.3 mph93%29.58 "Hg5 mi
6:24 am44 °FFog.7 mph93%29.59 "Hg4 mi
5:52 am45 °FFog.No wind90%29.55 "Hg5 mi
4:52 am44 °FFog.3 mph93%29.59 "Hg5 mi
3:52 am44 °FFog.3 mph93%29.62 "Hg3 mi
3:01 am44 °FRain. Fog.No wind93%29.69 "Hg2 mi
2:25 am43 °FHeavy rain. Fog.14 mph93%29.71 "Hg1 mi
2:03 am42 °FLight rain. Fog.5 mph96%29.68 "Hg1 mi
1:52 am42 °FFog.5 mph92%29.68 "Hg1 mi
12:52 am42 °FFog.8 mph92%29.67 "Hg2 mi
11:52 pm
Fri, Dec 13
43 °FFog.9 mph93%29.73 "Hg2 mi
10:52 pm42 °FFog.7 mph92%29.79 "Hg1 mi
9:52 pm41 °FFog.7 mph93%29.81 "Hg1 mi
9:10 pm40 °FFog.8 mph97%29.81 "Hg1 mi
8:52 pm40 °FFog.7 mph93%29.84 "Hg1 mi
8:33 pm40 °FFog.10 mph93%29.83 "Hg2 mi
7:52 pm40 °FLight rain. Fog.7 mph93%29.88 "Hg5 mi
6:52 pm40 °FLight rain. Fog.9 mph93%29.89 "Hg6 mi
5:52 pm39 °FLight rain. Fog.8 mph93%29.93 "Hg5 mi
4:52 pm39 °FLight rain. Fog.9 mph89%29.95 "Hg4 mi
3:52 pm38 °FLight rain. Fog.6 mph93%29.99 "Hg3 mi
2:52 pm38 °FLight rain. Fog.6 mph90%30.01 "Hg3 mi
2:13 pm37 °FRain. Fog.10 mph93%30.01 "Hg2 mi
1:52 pm37 °FRain. Fog.5 mph93%30.04 "Hg3 mi
12:52 pm37 °FLight rain. Fog.10 mph93%30.08 "Hg3 mi
11:52 am37 °FRain. Fog.9 mph89%30.14 "Hg2 mi
Weather by CustomWeather, © 2019

See weather overview

Advertising